Regional Weather Roundup
Issued by NWS Wakefield, VA

Home | Current Version | Previous Version | Text Only | Print | Product List | Glossary Off
Versions: 1 2 3 4 5 6 7 8 9 10 11 12 13 14 15 16 17 18 19 20 21 22 23 24 25 26 27 28 29 30 31 32 33 34 35 36 37 38 39 40 41 42 43 44 45 46 47 48 49 50

000
ASUS41 KAKQ 250615
RWRAKQ

REGIONAL WEATHER ROUNDUP
NATIONAL WEATHER SERVICE WAKEFIELD VA
200 AM EDT FRI MAY 25 2018

Note: "fair" indicates few or no clouds below 12,000 feet with no
significant weather and/or obstructions to visibility. * = Denotes
station may not report precipitation (e.g., rain,snow,etc.),
thunder or fog.

VAZ042-051-052>054-056-250700-
NORTHERN VIRGINIA

CITY           SKY/WX    TMP DP  RH WIND       PRES   REMARKS
WASH NATIONAL  FAIR      67  60  78 S6        30.13F
DULLES         FAIR      61  55  81 CALM      30.12F
FORT BELVOIR   FAIR      58  57  96 CALM      30.12F
QUANTICO       FAIR      63  61  93 NW6       30.13F
FREDERICKSBRG* FAIR      60  56  89 CALM      30.12F
STAFFORD*      FAIR      55  55 100 CALM      30.16F
WARRENTON      FAIR      55  53  90 CALM      30.12F
CULPEPER*      FAIR      56  54  95 CALM      30.14F
MANASSAS*      FAIR      56  55  97 CALM      30.13F
LEESBURG*      FAIR      61  57  88 CALM      30.13F
WINCHESTER     FAIR      59  50  72 SW5       30.14F
FRONT ROYAL*   FAIR      59  52  77 S5        30.12F
LURAY*         FAIR      55  54  94 CALM      30.15F
$$

VAZ048-049-060>072-079>083-250700-
CENTRAL AND SOUTH CENTRAL VIRGINIA

CITY           SKY/WX    TMP DP  RH WIND       PRES   REMARKS
RICHMOND       FAIR      65  61  87 CALM      30.13F
CHESTERFIELD*  FAIR      63  60  90 CALM      30.14F
PETERSBURG*    FAIR      58  56  94 CALM      30.15F
HANOVER        FAIR      61  60  97 CALM      30.14F
TAPPAHANNOCK*  FAIR      60  60  97 CALM      30.15S
QUINTON*       FAIR      61  61 100 CALM      30.14F
CHARLOTTSVILLE FAIR      60  56  86 SW3       30.14F
GORDONSVILLE*  FAIR      57  57 100 CALM      30.13F
ORANGE*        FAIR      55  54  94 CALM      30.14S
LOUISA*        FAIR      64  57  77 S5        30.18F
BUMPASS*       FAIR      61  59  94 CALM      30.14S
FARMVILLE*     FAIR     N/A N/A N/A CALM      30.14S
CREWE*         FAIR      60  60 100 CALM      30.15S
FORT PICKETT*  FAIR      64  60  84 CALM      30.15F
CHASE CITY*    FAIR      63  63 100 CALM      30.15S
CLARKSVILLE*   FAIR      64  63  94 CALM      30.14F
SOUTH HILL*    FAIR      61  61  98 CALM      30.21S
LAWRENCEVILLE* FAIR      62  59  92 CALM      30.15S
EMPORIA*         N/A     61  59  94 CALM      30.16F
$$

VAZ088>098-250700-
SOUTHEAST VIRGINIA

CITY           SKY/WX    TMP DP  RH WIND       PRES   REMARKS
NORFOLK        FAIR      66  64  93 CALM      30.14F
VIRGINIA BEACH FAIR      61  61 100 CALM      30.13F FOG
NORFOLK NAVAL  FAIR      62  60  93 SW3       30.16S FOG
WEST POINT*    FAIR      61  60  95 CALM      30.15F
SALUDA*        FAIR      63  63 100 CALM      30.14F
NEWPORT NEWS   FAIR      60  59  96 CALM      30.14S
LANGLEY AFB    FAIR      63  63 100 NW3       30.14F
FORT EUSTIS    FAIR      66  63  91 S3        30.12F
WILLIAMSBURG*  FAIR      66  64  94 S6        30.15S
HR EXEC AP*    FAIR      55  53  93 CALM      30.15F
FRANKLIN*      FAIR      59  58  98 CALM      30.15F
US460-WAKEFLD  FAIR      61  59  93 CALM      30.14F FOG
$$

VAZ020-022-025-037-045-250700-
WEST CENTRAL AND SOUTHWEST VIRGINIA

CITY           SKY/WX    TMP DP  RH WIND       PRES   REMARKS
STAUNTON*      FAIR      55  54  94 CALM      30.18F
WAYNESBORO*    FAIR      59  53  81 CALM      30.17F
HOT SPRINGS VA FAIR      61  49  64 S8        30.26F
LYNCHBURG      FAIR      60  56  86 CALM      30.16F
DANVILLE       FAIR      62  62 100 CALM      30.15F
SOUTH BOSTON*  FAIR      60  59  96 CALM      30.15S
MARTINSVILLE   FAIR      60  59  97 CALM      30.19S
ROANOKE        FAIR      65  59  81 NE3       30.18F
BLACKSBURG     MOCLDY    63  60  91 CALM      30.22F
DUBLIN*        CLOUDY    64  61  90 CALM      30.21S
MARION*        FAIR      64  63  94 NE7       30.22F
HILLSVILLE*    MOCLDY    63  59  89 CALM      30.20F
RICHLANDS*     FAIR      65  51  59 SE3       30.18F
WISE*          FAIR      66  61  82 S6        30.18F
ABINGDON*      FAIR      66  63  88 E3        30.16S
$$

MDZ021>025-VAZ099-100-250700-
SOUTHERN MARYLAND AND THE DELMARVA PENINSULA

CITY           SKY/WX    TMP DP  RH WIND       PRES   REMARKS
PATUXENT RIVER FAIR      69  63  81 SW9       30.12F
BAY BRIDGE APT NOT AVBL
LEONARDTOWN    FAIR      63  59  88 CALM      30.15F
DOVER          FAIR      64  58  82 SW8       30.12F
GEORGETOWN     FAIR      60  56  86 SW3       30.14F
EASTON         FAIR      66  63  87 CALM      30.16F
CAMBRIDGE      CLEAR     64  63  94 CALM      30.13F
SALISBURY      FAIR      61  58  90 CALM      30.13F
TANGIER        FAIR      68  66  94 S7        30.13F
OCEAN CITY     FAIR      58  58 100 CALM      30.14F
WALLOPS ISLAND FAIR      62  59  90 CALM      30.14F
ACCOMACK*      FAIR      59  59  97 CALM      30.14F
$$

NCZ012>017-030>032-250700-
NORTH CENTRAL AND EASTERN NORTH CAROLINA

CITY           SKY/WX    TMP DP  RH WIND       PRES   REMARKS
ROANOKE RAPIDS FAIR      59  59 100 CALM      30.15F
RALEIGH        FAIR      66  65  96 CALM      30.15F
ELIZABETH CITY FAIR      64  64 100 CALM      30.15S
AHOSKIE*       FAIR      59  59 100 CALM      30.15F
EDENTON*       FAIR      62  60  93 CALM      30.16F
CURRITUCK*     NOT AVBL
KILL DEVIL HLS FAIR      65  65 100 CALM      30.14S FOG
MANTEO         FAIR      62  61  97 CALM      30.16S
CAPE HATTERAS  FAIR      66  58  75 NE5       30.14F
TARBORO*       NOT AVBL
GOLDSBORO      FAIR      65  62  89 CALM      30.13F
WASHINGTON     FAIR      62  61  96 CALM      30.15F
GREENVILLE     FAIR      63  61  94 CALM      30.16F
NEW BERN       FAIR      62  61  96 CALM      30.15F
WILMINGTON     CLOUDY    69  67  93 NE3       30.12F
$$

VAZ048-250700-
ELSEWHERE

CITY           SKY/WX    TMP DP  RH WIND       PRES   REMARKS
HARRISBURG PA  FAIR      63  52  67 SE3       30.09F
BALTIMORE      FAIR      64  51  62 CALM      30.11F
ANNAPOLIS      FAIR      66  57  72 CALM      30.11F
ANDREWS AFB    FAIR      63  57  82 CALM      30.12F
PHILADELPHIA   FAIR      64  55  72 SW5       30.11F
HENDERSON NC   FAIR      64  58  83 S3        30.16S
GREENSBORO     FAIR      68  66  93 SW3       30.15S
ROCKY MOUNT    FAIR      63  61  93 CALM      30.15F
$$

VAZ100-250700-
MARINE

STATION/POSITION TIME  TEMP    WIND        PRES    WAVE   SWELL
                       AIR SEA DIR/SP/G            HT/PER HT/PER
                 (UTC) (F)     (DEG/KT/KT) (MB)    (FT/S) (FT/S)
BRANDYWINE LGT   0548          230/ 15/ 16 1020.4F
CAPE MAY NJ      0536      65  210/  5/  7 1019.9F
LEWES DE         0536      64  230/  5/  8 1020.2F
15NM E FENWICK I 0550   62 62  210/  8/  8 1020.9F   1/ 8   2/ 8
OCEAN-CITY-INLET 0536      70  220/  3/  4 1021.1F
WACHAPREAGUE VA  0536      78   CALM  /  1 1020.8F
THOMAS POINT MD  0600   69 70  190/ 11/ 12 1020.7F
GOOSES REEF MD   0600   71     190/ 10/ 12 1020.5    1/ 2
COVE POINT MD    0536          190/  9/ 11 1020.9F
SOLOMONS ISLAND  0536      72  190/  6/  7 1020.1F
BISHOPS HEAD MD  0536      76  190/  9/ 10 1020.7F
PINEY POINT MD   0548          190/  5/  7   N/A
POTOMAC MD       0600   71 73  200/ 10/ 12 1019.6    1/ 3
CAMBRIDGE MD     0536      75              1021.2F
LEWISETTA VA     0536      76  210/  7/  8 1020.5F
RAPPAHANNOCK LGT 0548          170/  8/  9 1021.3F
STINGRAY PT      0540   71     200/  8/ 10 1020.4S
YORK RVR RNG VA  0548          180/  6/  7 1021.2F
YORKTOWN VA      0536      76  220/  1/  2 1020.2F
DOMINION TERM VA 0548          170/  6/  7 1021.0F
KIPTOPEKE VA     0536      71  110/  3/  3   N/A
CAPE HENRY VA    0536          190/  1/  2   N/A
WILLOUBY STN VA  0548          170/  6/  6   N/A
S CRANEY ISL VA  0548          200/  5/  6 1020.6F
CAPE HENRY BUOY  0600      70                N/A     1/ 8
1ST LANDING BUOY 0600      72                N/A     1
64NM E OF VA BCH 0550   65 67  130/  4/  4 1021.3F   2/ 9   2/ 9
DUCK PIER NC     0536      72  120/  3/  4 1020.7F
44100 DUCK FRF   0545      72                N/A     2/ 8
44056 DUCK FRF   0530      72                N/A     1/ 8
OREGON INLET NC  0536      74   90/  4/  4 1020.9F
HATTERAS NC      0536      77   80/  3/  4 1020.5F
DIAMOND SHLS NC  0550   77 78  120/  8/ 10 1020.8F   2/ 8   2/ 8
CAPE LOOKOUT NC  0600           80/  6/  6 1020.4F
$$



USA.gov is the U.S. government's official web portal to all federal, state and local government web resources and services.